Time,TemperatureF,DewpointF,PressureIn,WindDirection,WindDirectionDegrees,WindSpeedMPH,WindSpeedGustMPH,Humidity,HourlyPrecipIn,Conditions,Clouds,dailyrainin,SoftwareType,DateUTC
2013-05-18 00:03:00,65.0,62.0,30.01,East,85,1.0,5.0,89,0.00,,,0.07,,2013-05-18 04:03:00,
2013-05-18 00:12:00,65.0,62.0,30.01,East,85,1.0,5.0,89,0.00,,,0.07,,2013-05-18 04:12:00,
2013-05-18 00:23:00,64.0,61.0,30.01,SE,132,0.0,3.0,90,0.00,,,0.07,,2013-05-18 04:23:00,
2013-05-18 00:33:00,64.0,61.0,30.01,ESE,121,0.0,3.0,91,0.00,,,0.07,,2013-05-18 04:33:00,
2013-05-18 00:42:00,64.0,61.0,30.01,ESE,121,0.0,3.0,91,0.00,,,0.07,,2013-05-18 04:42:00,
2013-05-18 00:52:00,64.0,62.0,30.01,ESE,110,0.0,4.0,92,0.00,,,0.07,,2013-05-18 04:52:00,
2013-05-18 01:02:00,63.0,61.0,30.01,East,94,1.0,4.0,93,0.00,,,0.07,,2013-05-18 05:02:00,
2013-05-18 01:12:00,63.0,61.0,30.01,East,94,1.0,4.0,93,0.00,,,0.07,,2013-05-18 05:12:00,
2013-05-18 01:22:00,63.0,61.0,30.01,SE,131,2.0,5.0,93,0.00,,,0.07,,2013-05-18 05:22:00,
2013-05-18 01:32:00,63.0,61.0,30.00,SE,125,2.0,5.0,93,0.00,,,0.07,,2013-05-18 05:32:00,
2013-05-18 01:42:00,63.0,61.0,30.00,SE,125,2.0,5.0,93,0.00,,,0.07,,2013-05-18 05:42:00,
2013-05-18 01:52:00,63.0,61.0,30.00,ENE,78,2.0,4.0,93,0.00,,,0.07,,2013-05-18 05:52:00,
2013-05-18 02:02:00,63.0,61.0,30.00,ESE,107,1.0,4.0,93,0.00,,,0.07,,2013-05-18 06:02:00,
2013-05-18 02:11:00,63.0,61.0,30.00,ESE,107,1.0,4.0,93,0.00,,,0.07,,2013-05-18 06:11:00,
2013-05-18 02:22:00,63.0,61.0,29.99,SSE,148,2.0,4.0,94,0.00,,,0.07,,2013-05-18 06:22:00,
2013-05-18 02:32:00,62.0,60.0,29.99,SE,130,0.0,4.0,94,0.00,,,0.07,,2013-05-18 06:32:00,
2013-05-18 02:42:00,62.0,60.0,29.99,SE,130,0.0,4.0,94,0.00,,,0.07,,2013-05-18 06:42:00,
2013-05-18 02:52:00,62.0,60.0,30.00,ESE,123,0.0,3.0,94,0.00,,,0.07,,2013-05-18 06:52:00,
2013-05-18 03:01:00,62.0,60.0,29.99,ESE,115,0.0,2.0,94,0.00,,,0.07,,2013-05-18 07:01:00,
2013-05-18 03:11:00,62.0,60.0,29.99,ESE,115,0.0,2.0,94,0.00,,,0.07,,2013-05-18 07:11:00,
2013-05-18 03:21:00,62.0,61.0,29.99,SE,139,1.0,3.0,95,0.00,,,0.07,,2013-05-18 07:21:00,
2013-05-18 03:32:00,62.0,61.0,30.00,SE,133,0.0,2.0,95,0.00,,,0.07,,2013-05-18 07:32:00,
2013-05-18 03:42:00,62.0,61.0,30.00,SE,133,0.0,2.0,95,0.00,,,0.07,,2013-05-18 07:42:00,
2013-05-18 03:52:00,61.0,60.0,30.00,East,97,0.0,2.0,95,0.00,,,0.07,,2013-05-18 07:52:00,
2013-05-18 04:01:00,62.0,61.0,29.99,ESE,115,0.0,4.0,95,0.00,,,0.07,,2013-05-18 08:01:00,
2013-05-18 04:11:00,62.0,61.0,29.99,ESE,115,0.0,4.0,95,0.00,,,0.07,,2013-05-18 08:11:00,
2013-05-18 04:21:00,61.0,60.0,30.00,SE,126,1.0,3.0,96,0.00,,,0.07,,2013-05-18 08:21:00,
2013-05-18 04:32:00,61.0,60.0,30.00,ESE,123,0.0,3.0,96,0.00,,,0.07,,2013-05-18 08:32:00,
2013-05-18 04:42:00,61.0,60.0,30.00,ESE,123,0.0,3.0,96,0.00,,,0.07,,2013-05-18 08:42:00,
2013-05-18 04:52:00,61.0,60.0,30.00,ESE,115,0.0,2.0,95,0.00,,,0.07,,2013-05-18 08:52:00,
2013-05-18 05:02:00,61.0,60.0,30.00,ESE,115,0.0,1.0,95,0.00,,,0.07,,2013-05-18 09:02:00,
2013-05-18 05:11:00,61.0,60.0,30.00,ESE,115,0.0,1.0,95,0.00,,,0.07,,2013-05-18 09:11:00,
2013-05-18 05:22:00,61.0,60.0,30.01,SE,125,0.0,3.0,96,0.00,,,0.07,,2013-05-18 09:22:00,
2013-05-18 05:32:00,61.0,60.0,30.01,SE,125,0.0,1.0,96,0.00,,,0.07,,2013-05-18 09:32:00,
2013-05-18 05:43:00,61.0,60.0,30.01,SE,125,0.0,1.0,96,0.00,,,0.07,,2013-05-18 09:43:00,
2013-05-18 05:53:00,60.0,59.0,30.02,SE,125,0.0,0.0,96,0.00,,,0.07,,2013-05-18 09:53:00,
2013-05-18 06:03:00,60.0,59.0,30.02,SE,125,0.0,0.0,96,0.00,,,0.07,,2013-05-18 10:03:00,
2013-05-18 06:12:00,60.0,59.0,30.02,SE,125,0.0,0.0,96,0.00,,,0.07,,2013-05-18 10:12:00,
2013-05-18 06:23:00,59.0,58.0,30.03,East,90,1.0,3.0,96,0.00,,,0.07,,2013-05-18 10:23:00,
2013-05-18 06:33:00,60.0,59.0,30.03,East,83,0.0,2.0,97,0.00,,,0.07,,2013-05-18 10:33:00,
2013-05-18 06:42:00,60.0,59.0,30.03,East,83,0.0,2.0,97,0.00,,,0.07,,2013-05-18 10:42:00,
2013-05-18 06:52:00,60.0,59.0,30.03,East,86,0.0,3.0,97,0.00,,,0.07,,2013-05-18 10:52:00,
2013-05-18 07:03:00,61.0,60.0,30.04,ENE,76,1.0,4.0,97,0.00,,,0.07,,2013-05-18 11:03:00,
2013-05-18 07:12:00,61.0,60.0,30.04,ENE,76,1.0,4.0,97,0.00,,,0.07,,2013-05-18 11:12:00,
2013-05-18 07:22:00,61.0,60.0,30.03,ENE,76,1.0,3.0,97,0.00,,,0.07,,2013-05-18 11:22:00,
2013-05-18 07:33:00,61.0,60.0,30.04,East,80,1.0,3.0,97,0.00,,,0.07,,2013-05-18 11:33:00,
2013-05-18 07:42:00,61.0,60.0,30.04,East,80,1.0,3.0,97,0.00,,,0.07,,2013-05-18 11:42:00,
2013-05-18 07:52:00,61.0,60.0,30.04,ENE,78,1.0,4.0,97,0.00,,,0.07,,2013-05-18 11:52:00,
2013-05-18 08:02:00,60.0,59.0,30.05,ENE,72,2.0,6.0,97,0.00,,,0.07,,2013-05-18 12:02:00,
2013-05-18 08:12:00,60.0,59.0,30.05,ENE,72,2.0,6.0,97,0.00,,,0.07,,2013-05-18 12:12:00,
2013-05-18 08:23:00,61.0,60.0,30.05,East,90,2.0,5.0,97,0.00,,,0.07,,2013-05-18 12:23:00,
2013-05-18 08:33:00,62.0,61.0,30.04,SE,141,3.0,7.0,97,0.00,,,0.07,,2013-05-18 12:33:00,
2013-05-18 08:42:00,62.0,61.0,30.04,SE,141,3.0,7.0,97,0.00,,,0.07,,2013-05-18 12:42:00,
2013-05-18 08:52:00,62.0,61.0,30.04,ESE,106,1.0,4.0,97,0.00,,,0.07,,2013-05-18 12:52:00,
2013-05-18 09:01:00,63.0,62.0,30.04,ENE,78,1.0,5.0,97,0.00,,,0.07,,2013-05-18 13:01:00,
2013-05-18 09:11:00,63.0,62.0,30.04,ENE,78,1.0,5.0,97,0.00,,,0.07,,2013-05-18 13:11:00,
2013-05-18 09:21:00,63.0,62.0,30.04,SSE,150,1.0,6.0,97,0.00,,,0.07,,2013-05-18 13:21:00,
2013-05-18 09:33:00,64.0,63.0,30.04,SE,140,2.0,6.0,96,0.00,,,0.07,,2013-05-18 13:33:00,
2013-05-18 09:43:00,64.0,63.0,30.04,SE,140,2.0,6.0,96,0.00,,,0.07,,2013-05-18 13:43:00,
2013-05-18 09:53:00,65.0,63.0,30.03,SE,136,1.0,4.0,94,0.00,,,0.07,,2013-05-18 13:53:00,
2013-05-18 10:03:00,68.0,65.0,30.03,SE,146,1.0,4.0,90,0.00,,,0.07,,2013-05-18 14:03:00,
2013-05-18 10:12:00,68.0,65.0,30.03,SE,146,1.0,4.0,90,0.00,,,0.07,,2013-05-18 14:12:00,
2013-05-18 10:22:00,68.0,64.0,30.03,SE,126,2.0,6.0,86,0.00,,,0.07,,2013-05-18 14:22:00,
2013-05-18 10:32:00,69.0,65.0,30.04,East,98,1.0,5.0,86,0.00,,,0.07,,2013-05-18 14:32:00,
2013-05-18 10:42:00,69.0,65.0,30.04,East,98,1.0,5.0,86,0.00,,,0.07,,2013-05-18 14:42:00,
2013-05-18 10:54:00,69.0,64.0,30.04,SSE,150,0.0,5.0,85,0.00,,,0.07,,2013-05-18 14:54:00,
2013-05-18 11:03:00,69.0,65.0,30.04,SSE,154,0.0,5.0,87,0.00,,,0.07,,2013-05-18 15:03:00,
2013-05-18 11:13:00,69.0,65.0,30.04,SSE,154,0.0,5.0,87,0.00,,,0.07,,2013-05-18 15:13:00,
2013-05-18 11:23:00,70.0,64.0,30.04,ENE,75,0.0,4.0,82,0.00,,,0.07,,2013-05-18 15:23:00,
2013-05-18 11:33:00,71.0,64.0,30.04,South,186,1.0,6.0,78,0.00,,,0.07,,2013-05-18 15:33:00,
2013-05-18 11:43:00,71.0,64.0,30.04,South,186,1.0,6.0,78,0.00,,,0.07,,2013-05-18 15:43:00,
2013-05-18 11:53:00,72.0,65.0,30.03,East,94,1.0,4.0,78,0.00,,,0.07,,2013-05-18 15:53:00,
2013-05-18 12:02:00,72.0,64.0,30.04,ENE,78,2.0,5.0,76,0.00,,,0.07,,2013-05-18 16:02:00,
2013-05-18 12:13:00,72.0,64.0,30.04,ENE,78,2.0,5.0,76,0.00,,,0.07,,2013-05-18 16:13:00,
2013-05-18 12:22:00,71.0,63.0,30.04,SE,136,2.0,7.0,76,0.00,,,0.07,,2013-05-18 16:22:00,
2013-05-18 12:33:00,71.0,63.0,30.04,ENE,74,1.0,5.0,77,0.00,,,0.07,,2013-05-18 16:33:00,
2013-05-18 12:42:00,71.0,63.0,30.04,ENE,74,1.0,5.0,77,0.00,,,0.07,,2013-05-18 16:42:00,
2013-05-18 12:52:00,71.0,64.0,30.03,ENE,74,1.0,3.0,79,0.00,,,0.07,,2013-05-18 16:52:00,
2013-05-18 13:02:00,73.0,65.0,30.03,SSE,147,1.0,6.0,75,0.00,,,0.07,,2013-05-18 17:02:00,
2013-05-18 13:12:00,73.0,65.0,30.03,SSE,147,1.0,6.0,75,0.00,,,0.07,,2013-05-18 17:12:00,
2013-05-18 13:22:00,73.0,64.0,30.02,SE,137,1.0,5.0,73,0.00,,,0.07,,2013-05-18 17:22:00,
2013-05-18 13:32:00,74.0,64.0,30.02,ESE,118,3.0,7.0,71,0.00,,,0.07,,2013-05-18 17:32:00,
2013-05-18 13:42:00,74.0,64.0,30.02,ESE,118,3.0,7.0,71,0.00,,,0.07,,2013-05-18 17:42:00,
2013-05-18 13:52:00,74.0,63.0,30.01,SE,146,3.0,8.0,69,0.00,,,0.07,,2013-05-18 17:52:00,
2013-05-18 14:01:00,74.0,63.0,30.01,ESE,123,2.0,5.0,69,0.00,,,0.07,,2013-05-18 18:01:00,
2013-05-18 14:12:00,74.0,63.0,30.01,ESE,123,2.0,5.0,69,0.00,,,0.07,,2013-05-18 18:12:00,
2013-05-18 14:21:00,76.0,64.0,30.01,SSE,148,2.0,8.0,67,0.00,,,0.07,,2013-05-18 18:21:00,
2013-05-18 14:32:00,76.0,64.0,30.00,SSE,161,2.0,6.0,67,0.00,,,0.07,,2013-05-18 18:32:00,
2013-05-18 14:42:00,76.0,64.0,30.00,SSE,161,2.0,6.0,67,0.00,,,0.07,,2013-05-18 18:42:00,
2013-05-18 14:52:00,76.0,64.0,30.00,ESE,122,1.0,7.0,66,0.00,,,0.07,,2013-05-18 18:52:00,
2013-05-18 15:02:00,75.0,64.0,30.00,ESE,117,1.0,5.0,68,0.00,,,0.07,,2013-05-18 19:02:00,
2013-05-18 15:12:00,75.0,64.0,30.00,ESE,117,1.0,5.0,68,0.00,,,0.07,,2013-05-18 19:12:00,
2013-05-18 15:22:00,75.0,62.0,29.99,SSE,159,1.0,8.0,65,0.00,,,0.07,,2013-05-18 19:22:00,
2013-05-18 15:32:00,75.0,64.0,29.99,South,180,1.0,7.0,68,0.00,,,0.07,,2013-05-18 19:32:00,
2013-05-18 15:42:00,75.0,64.0,29.99,South,180,1.0,7.0,68,0.00,,,0.07,,2013-05-18 19:42:00,
2013-05-18 15:52:00,75.0,64.0,29.99,South,185,0.0,4.0,69,0.00,,,0.07,,2013-05-18 19:52:00,
2013-05-18 16:02:00,75.0,64.0,29.99,SSE,160,0.0,5.0,68,0.00,,,0.07,,2013-05-18 20:02:00,
2013-05-18 16:11:00,75.0,64.0,29.99,SSE,160,0.0,5.0,68,0.00,,,0.07,,2013-05-18 20:11:00,
2013-05-18 16:22:00,75.0,63.0,29.99,SW,214,0.0,3.0,67,0.00,,,0.07,,2013-05-18 20:22:00,
2013-05-18 16:32:00,75.0,63.0,29.98,SW,222,1.0,4.0,66,0.00,,,0.07,,2013-05-18 20:32:00,
2013-05-18 16:42:00,75.0,63.0,29.98,SW,222,1.0,4.0,66,0.00,,,0.07,,2013-05-18 20:42:00,
2013-05-18 16:52:00,75.0,64.0,29.98,South,179,1.0,4.0,68,0.00,,,0.07,,2013-05-18 20:52:00,
2013-05-18 17:01:00,75.0,64.0,29.98,SSE,166,0.0,3.0,68,0.00,,,0.07,,2013-05-18 21:01:00,
2013-05-18 17:12:00,75.0,64.0,29.98,SSE,166,0.0,3.0,68,0.00,,,0.07,,2013-05-18 21:12:00,
2013-05-18 17:21:00,75.0,64.0,29.97,SSE,149,0.0,4.0,68,0.00,,,0.07,,2013-05-18 21:21:00,
2013-05-18 17:32:00,75.0,63.0,29.97,ESE,114,0.0,1.0,67,0.00,,,0.07,,2013-05-18 21:32:00,
2013-05-18 17:43:00,75.0,63.0,29.97,ESE,114,0.0,1.0,67,0.00,,,0.07,,2013-05-18 21:43:00,
2013-05-18 17:53:00,75.0,62.0,29.97,SE,136,0.0,5.0,65,0.00,,,0.07,,2013-05-18 21:53:00,
2013-05-18 18:03:00,76.0,62.0,29.97,SSE,158,1.0,5.0,62,0.00,,,0.07,,2013-05-18 22:03:00,
2013-05-18 18:12:00,76.0,62.0,29.97,SSE,158,1.0,5.0,62,0.00,,,0.07,,2013-05-18 22:12:00,
2013-05-18 18:23:00,76.0,63.0,29.97,SE,142,0.0,3.0,64,0.00,,,0.07,,2013-05-18 22:23:00,
2013-05-18 18:33:00,76.0,62.0,29.96,SE,146,0.0,5.0,61,0.00,,,0.00,,2013-05-18 22:33:00,
2013-05-18 18:42:00,76.0,62.0,29.96,South,187,1.0,4.0,61,0.00,,,0.00,,2013-05-18 22:42:00,
2013-05-18 18:52:00,76.0,62.0,29.96,South,187,1.0,4.0,61,0.00,,,0.00,,2013-05-18 22:52:00,
2013-05-18 19:01:00,75.0,62.0,29.96,SSE,155,0.0,1.0,64,0.00,,,0.00,,2013-05-18 23:01:00,
2013-05-18 19:12:00,75.0,62.0,29.96,SSE,155,0.0,1.0,64,0.00,,,0.00,,2013-05-18 23:12:00,
2013-05-18 19:22:00,75.0,64.0,29.96,SE,125,0.0,2.0,68,0.00,,,0.00,,2013-05-18 23:22:00,
2013-05-18 19:32:00,76.0,62.0,29.95,SE,133,1.0,5.0,63,0.00,,,0.00,,2013-05-18 23:32:00,
2013-05-18 19:41:00,76.0,62.0,29.95,SE,133,1.0,5.0,63,0.00,,,0.00,,2013-05-18 23:41:00,
2013-05-18 19:53:00,77.0,63.0,29.95,SE,130,1.0,5.0,61,0.00,,,0.00,,2013-05-18 23:53:00,
2013-05-18 20:01:00,77.0,63.0,29.95,SE,138,1.0,7.0,61,0.00,,,0.00,,2013-05-19 00:01:00,
2013-05-18 20:11:00,77.0,63.0,29.95,SE,138,1.0,7.0,61,0.00,,,0.00,,2013-05-19 00:11:00,
2013-05-18 20:21:00,77.0,62.0,29.95,ESE,113,1.0,4.0,59,0.00,,,0.00,,2013-05-19 00:21:00,
2013-05-18 20:32:00,77.0,63.0,29.95,ESE,114,0.0,2.0,61,0.00,,,0.00,,2013-05-19 00:32:00,
2013-05-18 20:41:00,77.0,63.0,29.95,ESE,114,0.0,2.0,61,0.00,,,0.00,,2013-05-19 00:41:00,
2013-05-18 20:52:00,76.0,62.0,29.95,SE,141,0.0,1.0,62,0.00,,,0.00,,2013-05-19 00:52:00,
2013-05-18 21:01:00,75.0,62.0,29.95,SE,141,0.0,0.0,63,0.00,,,0.00,,2013-05-19 01:01:00,
2013-05-18 21:11:00,75.0,62.0,29.95,SE,141,0.0,0.0,63,0.00,,,0.00,,2013-05-19 01:11:00,
2013-05-18 21:21:00,74.0,62.0,29.95,SE,142,0.0,0.0,66,0.00,,,0.00,,2013-05-19 01:21:00,
2013-05-18 21:32:00,73.0,62.0,29.95,SE,141,0.0,0.0,69,0.00,,,0.00,,2013-05-19 01:32:00,
2013-05-18 21:42:00,73.0,62.0,29.95,SE,141,0.0,0.0,69,0.00,,,0.00,,2013-05-19 01:42:00,
2013-05-18 21:52:00,72.0,62.0,29.95,SE,141,0.0,0.0,71,0.00,,,0.00,,2013-05-19 01:52:00,
2013-05-18 22:01:00,71.0,62.0,29.95,ESE,109,0.0,2.0,72,0.00,,,0.00,,2013-05-19 02:01:00,
2013-05-18 22:11:00,71.0,62.0,29.95,ESE,109,0.0,2.0,72,0.00,,,0.00,,2013-05-19 02:11:00,
2013-05-18 22:21:00,71.0,61.0,29.96,ESE,123,0.0,1.0,71,0.00,,,0.00,,2013-05-19 02:21:00,
2013-05-18 22:32:00,70.0,61.0,29.96,ESE,123,0.0,0.0,73,0.00,,,0.00,,2013-05-19 02:32:00,
2013-05-18 22:42:00,70.0,61.0,29.96,ESE,123,0.0,0.0,73,0.00,,,0.00,,2013-05-19 02:42:00,
2013-05-18 22:52:00,69.0,61.0,29.96,ESE,123,0.0,1.0,76,0.00,,,0.00,,2013-05-19 02:52:00,
2013-05-18 23:01:00,69.0,61.0,29.96,ESE,123,0.0,1.0,77,0.00,,,0.00,,2013-05-19 03:01:00,
2013-05-18 23:11:00,69.0,61.0,29.96,ESE,123,0.0,1.0,77,0.00,,,0.00,,2013-05-19 03:11:00,
2013-05-18 23:22:00,69.0,61.0,29.96,ESE,103,0.0,1.0,77,0.00,,,0.00,,2013-05-19 03:22:00,
2013-05-18 23:33:00,69.0,62.0,29.96,ESE,103,0.0,0.0,79,0.00,,,0.00,,2013-05-19 03:33:00,
2013-05-18 23:42:00,69.0,62.0,29.96,ESE,103,0.0,0.0,79,0.00,,,0.00,,2013-05-19 03:42:00,
2013-05-18 23:53:00,68.0,62.0,29.96,ESE,103,0.0,0.0,80,0.00,,,0.00,,2013-05-19 03:53:00,